Вернуться в каталог

FENGYUN 1C DEB

АктивенSSO
NORAD 33748·DEBRIS·🇨🇳 China

Запущен May 10, 1999 с Taiyuan Satellite Launch Center

Loading…

Ближайшие Пролёты (ближайшие 24 часа)

TLE

СвежийSource: Space-Track

Эпоха: Sep 14, 2026, 02:40 UTC

1 33748U 99025DJM 26257.11132375  .00001583  00000-0  58448-3 0  9994
2 33748  98.5601 310.3803 0035761 146.8906 213.4527 14.33490391953378

Отслеживайте FENGYUN 1C DEB в реальном времени с AllMySat

Download on the App Store